FW2813 Evanston CA current weather conditions

sailwx.info

Wind from 096

Air temperature 11.7° C
Dewpoint 9.2° C

Last reported at 2020-Jul-06 04:45 UTC.
Time now 2020-Jul-06 05:54 UTC

Location: N 45°37' W 061°13'.
View on Google Maps.

See reports from other nearby stations

  
Tides and Currents Weather Stations Pressure Air Temp Water Temp Dewpoint Dewpoint Depression Visibility Wind Speed Wind Dir Waves Ship Positions
date/time (UTC)wind fromknots sea level pressurealtimeterstation pressurevisibilityair tempwater tempwave heightnotes
2020-Jul-06 04:45 096 11.7
2020-Jul-06 04:30 126 11.7
2020-Jul-06 04:15 126 11.7
2020-Jul-06 04:00 126 11.7
2020-Jul-06 03:45 115 11.7
2020-Jul-06 03:30 115 0 gusting 2 11.7
2020-Jul-06 03:15 118 1 gusting 5 11.7
2020-Jul-06 03:02 146 1 gusting 4 11.7
2020-Jul-06 02:47 132 0 gusting 3 11.7
2020-Jul-06 02:31 119 0 gusting 5 11.7
2020-Jul-06 02:17 107 0 gusting 3 11.7
2020-Jul-06 02:02 097 0 gusting 3 11.7
2020-Jul-06 01:46 122 1 gusting 6 11.7
2020-Jul-06 01:31 119 0 gusting 3 11.7
2020-Jul-06 01:16 134 1 gusting 6 12.2
2020-Jul-06 01:01 152 0 gusting 4 12.2
2020-Jul-06 00:46 120 1 gusting 6 12.2
2020-Jul-06 00:31 144 0 gusting 4 12.2
2020-Jul-06 00:17 170 12.2
2020-Jul-06 00:01 128 2 gusting 6 12.2
2020-Jul-05 23:47 122 1 gusting 5 12.2
2020-Jul-05 23:30 115 1 gusting 5 12.8
2020-Jul-05 23:16 134 1 gusting 7 12.8
2020-Jul-05 23:01 130 2 gusting 6 12.8
2020-Jul-05 22:46 153 2 gusting 6 13.3
2020-Jul-05 22:31 131 2 gusting 6 13.3
2020-Jul-05 22:16 132 2 gusting 6 13.9
2020-Jul-05 22:01 138 2 gusting 7 13.9
2020-Jul-05 21:47 142 2 gusting 10 13.9
2020-Jul-05 21:31 148 4 gusting 8 14.4
2020-Jul-05 21:16 111 4 gusting 10 14.4
2020-Jul-05 21:01 114 3 gusting 9 15.6
2020-Jul-05 20:46 134 5 gusting 7 15.6
2020-Jul-05 20:30 114 4 gusting 8 15.6
2020-Jul-05 20:16 080 3 gusting 11 16.7
2020-Jul-05 20:00 104 3 gusting 8 16.7
2020-Jul-05 19:45 148 4 gusting 9 16.7
2020-Jul-05 19:30 128 3 gusting 8 17.8
2020-Jul-05 19:15 107 3 gusting 7 17.8
2020-Jul-05 19:00 175 1 gusting 6 17.8
2020-Jul-05 18:45 124 2 gusting 6 18.3
2020-Jul-05 18:30 105 3 gusting 7 17.2
2020-Jul-05 18:15 155 2 gusting 6 17.8
2020-Jul-05 18:00 252 1 gusting 6 17.8
2020-Jul-05 17:45 157 2 gusting 7 17.8
2020-Jul-05 17:30 121 2 gusting 6 17.2
2020-Jul-05 17:15 135 2 gusting 6 17.2
2020-Jul-05 17:00 105 3 gusting 7 16.7
2020-Jul-05 16:45 146 1 gusting 6 16.7
2020-Jul-05 16:30 114 2 gusting 6 16.1
2020-Jul-05 16:15 165 3 gusting 7 16.1
2020-Jul-05 16:00 159 2 gusting 6 15.6
2020-Jul-05 15:45 122 3 gusting 6 15.6
2020-Jul-05 15:30 226 3 gusting 6 15.6
2020-Jul-05 15:17 144 3 gusting 8 15.0
2020-Jul-05 15:02 146 2 gusting 6 15.0
2020-Jul-05 14:46 246 2 gusting 6 15.0
2020-Jul-05 14:32 180 1 gusting 6 14.4
2020-Jul-05 14:18 087 3 gusting 7 13.9
2020-Jul-05 14:01 199 1 gusting 5 13.3
2020-Jul-05 13:46 135 0 gusting 6 12.8
2020-Jul-05 13:31 152 2 gusting 6 13.3
2020-Jul-05 13:17 138 0 gusting 6 13.3
2020-Jul-05 13:00 201 2 gusting 6 13.3
2020-Jul-05 12:46 147 4 gusting 6 13.3
2020-Jul-05 12:30 048 1 gusting 5 12.8
2020-Jul-05 12:16 129 12.8
2020-Jul-05 12:01 053 1 gusting 5 12.2
2020-Jul-05 11:46 111 0 gusting 5 12.2
2020-Jul-05 11:30 134 2 gusting 5 12.2
2020-Jul-05 11:15 120 0 gusting 3 11.7
2020-Jul-05 11:00 106 0 gusting 4 11.7
2020-Jul-05 10:45 143 0 gusting 3 11.1
2020-Jul-05 10:31 134 11.1
2020-Jul-05 10:16 053 10.6
2020-Jul-05 10:00 055 0 gusting 2 10.6
2020-Jul-05 09:45 055 0 gusting 4 10.6
2020-Jul-05 09:30 055 10.6
2020-Jul-05 09:15 060 10.6
2020-Jul-05 09:00 058 0 gusting 2 10.0
2020-Jul-05 08:45 071 10.0
2020-Jul-05 08:30 063 10.0
2020-Jul-05 08:15 063 10.0
2020-Jul-05 08:00 060 10.0
2020-Jul-05 07:46 060 10.0
2020-Jul-05 07:32 078 10.0
2020-Jul-05 07:17 099 10.0
2020-Jul-05 07:01 120 10.6
2020-Jul-05 06:46 044 0 gusting 3 10.6
2020-Jul-05 06:31 072 10.6
2020-Jul-05 06:16 098 10.6
2020-Jul-05 06:01 102 10.6
2020-Jul-05 05:47 138 10.6
2020-Jul-05 05:31 117 10.6
2020-Jul-05 05:16 117 10.6
2020-Jul-05 05:02 117 10.6
2020-Jul-05 04:45 066 10.6
2020-Jul-05 04:30 066 10.6
2020-Jul-05 04:16 067 10.6
2020-Jul-05 04:01 067 10.6
2020-Jul-05 03:46 121 10.6
2020-Jul-05 03:31 121 10.6
2020-Jul-05 03:16 100 11.1
2020-Jul-05 03:00 101 0 gusting 2 11.1
2020-Jul-05 02:45 076 11.1
2020-Jul-05 02:31 119 0 gusting 3 11.1
2020-Jul-05 02:16 072 0 gusting 4 11.1
2020-Jul-05 02:00 116 0 gusting 3 11.1
2020-Jul-05 01:45 131 11.7
2020-Jul-05 01:31 131 0 gusting 3 11.7
2020-Jul-05 01:00 131 11.7
2020-Jul-05 00:46 131 0 gusting 3 11.7
2020-Jul-05 00:30 109 1 gusting 4 11.7
2020-Jul-05 00:15 126 0 gusting 3 12.2
2020-Jul-05 00:01 125 1 gusting 4 12.2
2020-Jul-04 23:45 128 12.2
2020-Jul-04 23:30 121 2 gusting 6 12.8
2020-Jul-04 23:15 114 2 gusting 6 12.8
2020-Jul-04 23:00 130 1 gusting 6 12.8
2020-Jul-04 22:45 105 1 gusting 6 13.3
2020-Jul-04 22:31 133 2 gusting 5 13.3
2020-Jul-04 22:15 074 0 gusting 5 13.3
2020-Jul-04 22:00 076 1 gusting 6 13.9
2020-Jul-04 21:46 113 1 gusting 6 13.9
2020-Jul-04 21:31 115 2 gusting 6 14.4
2020-Jul-04 21:15 140 0 gusting 5 14.4
2020-Jul-04 21:00 134 1 gusting 5 15.0
2020-Jul-04 20:45 138 0 gusting 6 15.0
2020-Jul-04 20:30 122 0 gusting 7 15.0
2020-Jul-04 20:16 159 3 gusting 9 15.6
2020-Jul-04 20:00 124 1 gusting 6 15.6
2020-Jul-04 19:45 199 3 gusting 8 15.6
2020-Jul-04 19:30 129 4 gusting 10 15.6
2020-Jul-04 19:15 084 2 gusting 6 15.6
2020-Jul-04 19:00 126 1 gusting 8 15.0
2020-Jul-04 18:45 120 1 gusting 6 15.6
2020-Jul-04 18:30 094 2 gusting 7 16.1
2020-Jul-04 18:15 134 3 gusting 8 16.1
2020-Jul-04 18:00 137 3 gusting 7 15.6
2020-Jul-04 17:45 128 3 gusting 9 16.1
2020-Jul-04 17:30 141 5 gusting 10 16.7
2020-Jul-04 17:15 139 4 gusting 12 16.1
2020-Jul-04 17:00 129 3 gusting 9 16.7
2020-Jul-04 16:45 140 3 gusting 10 16.7
2020-Jul-04 16:30 082 1 gusting 6 16.7
2020-Jul-04 16:16 096 5 gusting 10 16.7
2020-Jul-04 16:01 114 3 gusting 9 16.1
2020-Jul-04 15:47 134 1 gusting 6 15.6
2020-Jul-04 15:31 087 3 gusting 6 15.6
2020-Jul-04 15:15 059 4 gusting 9 16.1
2020-Jul-04 15:01 132 1 gusting 8 16.1
2020-Jul-04 14:46 132 5 gusting 7 16.1
2020-Jul-04 14:30 132 2 gusting 7 15.6
2020-Jul-04 14:15 096 2 gusting 5 15.6
2020-Jul-04 14:00 114 3 gusting 7 15.0
2020-Jul-04 13:45 101 1 gusting 6 15.0
2020-Jul-04 13:30 133 2 gusting 7 15.0
2020-Jul-04 13:16 123 3 gusting 9 15.0
2020-Jul-04 13:00 136 3 gusting 7 14.4
2020-Jul-04 12:45 116 3 gusting 6 13.9
2020-Jul-04 12:30 107 2 gusting 8 13.9
2020-Jul-04 12:15 113 2 gusting 7 13.9
2020-Jul-04 12:00 125 3 gusting 9 13.9
2020-Jul-04 11:45 141 2 gusting 6 13.3
2020-Jul-04 11:30 128 2 gusting 6 13.3
2020-Jul-04 11:15 111 2 gusting 5 12.8
2020-Jul-04 11:01 097 0 gusting 5 12.2
2020-Jul-04 10:45 086 0 gusting 3 12.2
2020-Jul-04 10:30 124 1 gusting 5 12.2
2020-Jul-04 10:15 113 11.7
2020-Jul-04 10:03 130 11.7
2020-Jul-04 09:46 133 0 gusting 3 11.7
2020-Jul-04 09:31 091 11.7
2020-Jul-04 09:16 123 11.1
2020-Jul-04 09:01 119 0 gusting 2 11.1
2020-Jul-04 08:46 128 0 gusting 4 11.1
2020-Jul-04 08:30 103 3 gusting 6 11.7
2020-Jul-04 08:16 124 11.7
2020-Jul-04 08:02 101 0 gusting 5 11.7
2020-Jul-04 07:46 130 2 gusting 6 11.7
2020-Jul-04 07:31 120 11.7
2020-Jul-04 07:17 102 0 gusting 4 11.7
2020-Jul-04 07:01 109 0 gusting 6 11.7
2020-Jul-04 06:46 114 1 gusting 5 11.7
2020-Jul-04 06:31 121 0 gusting 3 11.7
2020-Jul-04 06:16 094 0 gusting 6 11.7
2020-Jul-04 06:02 133 0 gusting 3 11.7
2020-Jul-04 05:46 128 2 gusting 7 12.2
2020-Jul-04 05:30 117 2 gusting 6 12.2
2020-Jul-04 05:16 129 2 gusting 6 12.2
2020-Jul-04 05:00 121 3 gusting 6 12.2